Location: Palombina Nuova
(43.6167°N, 13.4000°E)
Time: 06:48:38
(UTC+00:00)

STARLINK-1115 - Pass Details

Date: 17 February 2020
Orbit: 374 x 385 km, 53.0° (Epoch: 10 April)

Event Time Altitude Azimuth Distance (km) Brightness Sun altitude
Exits shadow 03:49:09 17° 135° (SE) 1,074 5.5 -24.8°
Drops below altitude 10° 03:51:24 10° 89° (E) 1,408 6.8 -24.4°
Enters shadow 04:48:10 -68° 236° (SW) 12,241 10.4 -14.2°
Maximum altitude 05:24:52 56° 328° (NNW) 461 3.0 -7.6°
